#timestamp,LO_Frequency,Hit,StdDev 
1514599215.8,286046998.7,N
1514599235.7,286047000.2,N
1514599255.5,286047001.8,N
1514599275.3,286047001.9,N
1514599295.2,286047003.5,N
1514599315.0,286047003.3,N
1514599315.9,286047003.3,N
1514599335.8,286047003.2,N
1514599355.6,286047005.1,N
1514599375.4,286047005.9,N
1514599395.3,286046999.9,N
1514599415.1,286047001.1,N
1514599435.8,286047000.6,N
1514599455.7,286047002.2,N
1514599475.5,286047003.4,N
1514599495.4,286047003.7,N
1514599515.2,286047001.2,N
1514599535.0,286046995.0,N
1514599535.9,286046995.0,N
1514599555.8,286046995.5,N
1514599575.6,286046999.6,N
1514599595.5,286046999.3,N
1514599615.3,286047001.2,N
1514599635.1,286047001.1,N
1514599655.9,286047002.7,N
1514599675.7,286046997.0,N
1514599695.5,286046998.0,N
1514599715.4,286046999.0,N
1514599735.2,286046998.4,N
1514599755.1,286046998.6,N
1514599756.0,286046998.6,N
1514599775.8,286046999.7,N
1514599795.6,286047000.4,N
1514599815.5,286046998.9,N
1514599835.3,286047001.1,N
1514599855.2,286047001.1,N
1514599875.9,286047002.2,N
1514599895.7,286046998.5,N
1514599915.6,286046999.4,N
1514599935.4,286046999.1,N
1514599955.2,286046997.2,N
1514599975.1,286046996.9,N
1514599976.0,286046996.9,N
1514599995.8,286046998.5,N
1514600015.7,286047002.5,N
1514600035.5,286046999.9,N
1514600055.3,286046999.4,N
1514600075.2,286046998.4,N
1514600095.0,286046998.1,N
1514600095.9,286046998.1,N
1514600115.8,286046999.0,N
1514600135.6,286046997.0,N
1514600155.4,286046999.1,N
1514600175.3,286046999.6,N
1514600195.1,286046999.1,N
1514600215.8,286046998.1,N
1514600235.7,286047000.8,N
1514600255.5,286047000.8,N
1514600275.4,286046999.3,N
1514600295.2,286046999.1,N
1514600315.0,286046996.3,N
1514600315.9,286046996.3,N
1514600335.8,286046996.2,N
1514600355.6,286046999.1,N
1514600375.5,286047000.5,N
1514600395.3,286047000.0,N
1514600415.1,286047000.7,N
1514600435.9,286047000.1,N
1514600455.7,286047002.1,N
1514600475.5,286047001.7,N
1514600495.4,286047002.5,N
1514600515.2,286047001.0,N
1514600535.1,286046999.4,N
1514600536.0,286046999.4,N
1514600555.0,286046998.3,N
1514600555.9,286046998.3,N
1514600575.8,286046998.1,N
1514600595.6,286047001.0,N
1514600615.4,286046998.7,N
1514600635.3,286046998.6,N
1514600655.1,286047001.0,N
1514600675.9,286047004.4,N
1514600695.7,286047001.8,N
1514600715.5,286046999.8,N
1514600735.4,286047002.4,N
1514600755.2,286047002.6,N
1514600775.1,286047002.8,N
1514600776.0,286047002.8,N
1514600795.8,286046999.7,N
1514600815.6,286047002.2,N
1514600835.5,286047004.0,N
1514600855.3,286047002.9,N
1514600875.1,286047001.7,N
1514600895.9,286047000.0,N
1514600915.7,286047000.1,N
1514600935.6,286047001.0,N
1514600955.4,286046999.9,N
1514600975.2,286046998.3,N
1514600995.1,286046999.9,N
1514600996.0,286046999.9,N
1514601015.8,286046998.3,N
1514601035.7,286046999.4,N
1514601055.5,286046999.9,N
1514601075.3,286046998.5,N
1514601095.2,286046998.6,N
1514601115.0,286046997.9,N
1514601115.9,286046997.9,N
1514601135.7,286046996.2,N
1514601155.6,286046995.7,N
1514601175.4,286046996.6,N
1514601195.3,286047000.0,N
1514601215.1,286047001.8,N
1514601235.8,286047001.9,N
1514601255.7,286047003.1,N
1514601275.5,286047001.9,N
1514601295.4,286047001.6,N
1514601315.2,286047003.0,N
1514601335.0,286047001.9,N
1514601335.9,286047001.9,N
1514601355.8,286047000.1,N
1514601375.6,286046998.9,N
1514601395.4,286046999.9,N
1514601415.3,286047000.3,N
1514601435.1,286047000.1,N
1514601455.9,286047000.9,N
1514601475.7,286046996.9,N
1514601495.5,286046995.7,N
1514601545.4,286046995.1,E
1514601555.3,286046998.4,N
1514601575.2,286047001.2,P
1514601595.9,286047002.1,N
1514601615.7,286047005.2,Y
1514601635.6,286047007.1,P
1514601655.4,286047007.5,N
1514601675.2,286047002.9,N
1514601695.1,286047003.2,N
1514601696.0,286047003.2,N
1514601715.8,286047007.1,N
1514601735.7,286047006.4,N
1514601755.5,286047009.2,Y
1514601775.3,286047003.8,P
1514601795.2,286047001.2,N
1514601815.0,286046999.5,N
1514601815.9,286046999.5,N
1514601835.8,286047001.2,N
1514601855.6,286046998.6,N
1514601875.4,286046999.8,N
1514601895.3,286046998.1,N
1514601915.1,286046998.4,N
1514601935.9,286047002.6,N
1514601955.7,286047003.5,N
1514601975.5,286047003.9,N
1514601995.4,286047005.7,N
1514602015.2,286047004.7,N
1514602035.0,286047002.9,N
1514602035.9,286047002.9,N
1514602055.8,286047005.3,N
1514602075.6,286047006.0,N
1514602095.5,286047004.2,N
1514602115.3,286047004.2,N
1514602135.1,286047003.3,N
1514602155.9,286047003.3,N
1514602175.7,286047004.1,N
1514602195.6,286047003.4,N
1514602215.4,286047003.5,N
1514602235.2,286047004.3,N
1514602255.1,286047002.7,N
1514602256.0,286047002.7,N
1514602275.8,286046998.8,N
1514602295.6,286046999.1,N
1514602315.5,286046996.1,N
1514602335.3,286046995.6,N
1514602355.2,286046993.7,N
1514602375.9,286046997.4,N
1514602395.7,286046998.4,N
1514602415.6,286047000.2,N
1514602435.4,286047004.1,N
1514602455.3,286047004.0,N
1514602475.1,286046998.6,N
1514602476.0,286046998.6,N
1514602495.8,286046999.3,N
1514602515.7,286046999.8,N
1514602535.5,286047003.9,N
1514602555.3,286047002.8,N
1514602575.2,286047000.8,N
1514602595.0,286047000.2,N
1514602595.9,286047000.2,N
1514602615.8,286047001.5,N
1514602635.6,286047003.2,N
1514602655.4,286047003.2,N
1514602675.3,286047003.1,N
1514602695.1,286047007.5,N
1514602715.9,286047002.9,N
1514602735.7,286047005.4,N
1514602755.5,286047004.9,N
1514602775.4,286047005.4,N
1514602795.2,286047001.8,N
